Regional Weather Roundup
Issued by NWS Charleston, SC

Current Version | Previous Version | Text Only | Print | Product List | Glossary Off
Versions: 1 2 3 4 5 6 7 8 9 10 11 12 13 14 15 16 17 18 19 20 21 22 23 24 25 26 27 28 29 30 31 32 33 34 35 36 37 38 39 40 41 42 43 44 45 46 47 48 49 50

000
ASUS42 KCHS 052113
RWRCHS

REGIONAL WEATHER ROUNDUP
NATIONAL WEATHER SERVICE CHARLESTON SC
500 PM EDT THU MAY 05 2016

NOTE: "FAIR" INDICATES FEW OR NO CLOUDS BELOW 12,000 FEET WITH NO
SIGNIFICANT WEATHER AND/OR OBSTRUCTIONS TO VISIBILITY.

NOT ALL STATIONS ARE QUALITY CONTROLLED. USE DATA WITH CAUTION...
ESPECIALLY DEWPOINT OBSERVATIONS.

SCZ027-030-031-034>040-042>050-052200-
...SOUTHEAST SOUTH CAROLINA...

CITY           SKY/WX    TMP DP  RH WIND       PRES   REMARKS
N CHARLESTON   PTSUNNY   67  42  40 N18G26    29.61R
WATERFRONT PRK   N/A     68  42  38 W8        29.59S
MOUNT PLEASANT FAIR      70  41  35 NW17G26   29.61R
JOHNS ISLAND   MOCLDY    70  43  37 W14G21    29.62R
PINOPOLIS        N/A     68  46  45 W15       29.53S
MONCKS CORNER  MOCLDY    64  36  34 NW8G20    29.63R
SUMMERVILLE    MOCLDY    66  45  45 NW9       29.64R
BEAUFORT MCAS  PTSUNNY   69  38  32 NW14G28   29.64S
BEAUFORT ARPT  FAIR      72  37  28 W18G26    29.64R HAZE
HILTON HEAD IS MOSUNNY   73  39  29 W12G29    29.66R
WALTERBORO     PTCLDY    72  34  25 NW15G25   29.64S
ALLENDALE      FAIR      68  36  30 W9G20     29.65R

...SOUTHERN MIDLANDS AND PEE DEE...

CITY           SKY/WX    TMP DP  RH WIND       PRES   REMARKS
GEORGETOWN     MOCLDY    64  41  42 NW16G23   29.59R
KINGSTREE      MOCLDY    63  46  55 N6        29.61R
ORANGEBURG     MOSUNNY   66  41  40 N14       29.65R
BARNWELL       FAIR      72  37  28 W10G26    29.66S
AIKEN          LGT RAIN  55  39  54 W14G30    29.73R
MANNING        FAIR      64  39  39 NW13G25   29.62S
COLUMBIA       MOSUNNY   68  41  37 W21G28    29.64S
SUMTER         MOSUNNY   68  39  35 W17       29.60R
FLORENCE       MOSUNNY   62  46  55 N12       29.61F
MYRTLE BEACH   MOSUNNY   57  45  62 NW12G20   29.62R
N MYRTLE BEACH LGT RAIN  55  49  80 W12G21    29.61R

$$

GAZ063-065-086>088-099>101-113>116-118-119-134>141-150-052200-
...SOUTHEAST GEORGIA...

CITY           SKY/WX    TMP DP  RH WIND       PRES   REMARKS
SAVANNAH ARPT  PTSUNNY   71  35  26 W16G28    29.66S
HUNTER AAF     MOSUNNY   72  39  30 NW18G30   29.64R
FORT STEWART   PTSUNNY   71  38  29 NW18G30   29.67R
STATESBORO     MOSUNNY   73  44  35 NW16G25   29.68F
SYLVANIA       CLEAR     71  41  34 NW21G26   29.68S
CLAXTON        MOCLDY    69  42  38 W16G28    29.70R

...CSRA...CENTRAL AND FAR SOUTHEAST GEORGIA...

CITY           SKY/WX    TMP DP  RH WIND       PRES   REMARKS
THOMSON        PTSUNNY   65  44  46 W20G30    29.75R
AUGUSTA-BUSH   MOSUNNY   68  36  30 NW18G25   29.67S
AUGUSTA-DANIEL PTSUNNY   65  39  38 NW10G21   29.69S
SWAINSBORO     FAIR      70  36  28 W16G25    29.71F
VIDALIA        MOSUNNY   70  37  30 W17G24    29.72S
EASTMAN        MOCLDY    67  38  34 NW9       29.76F
HAZLEHURST     MOCLDY    70  38  30 N13G20    29.72S
ALMA           MOSUNNY   71  37  28 NW18G24   29.72S
WAYCROSS       SUNNY     72  39  31 NW13G20   29.72S
JESUP          MOCLDY    73  43  33 N17G28    29.70S
BAXLEY         PTSUNNY   72  36  26 N16G26    29.72R
BRUNSWICK      MOSUNNY   79  37  22 W16G29    29.70S
SAINT SIMONS   MOSUNNY   72  37  28 W15G25    29.69S

$$

SCZ027-028-034-036>038-045-046-048>050-GAZ119-141-052200-
...LAKE AND SUPPLEMENTAL COASTAL OBSERVATIONS...

STATION/POSITION TIME  TEMP    WIND        PRES    WAVE   SWELL
                       AIR SEA DIR/SP/G            HT/PER HT/PER/DIR
                 (UTC) (F)     (DEG/KT/KT) (MB)    (FT/S) (FT/S/D)
WINYAH BAY       NOT AVBL
LAKE MURRAY      2000   63     280/ 13/ 21 1003.4F
ACE BASIN NERRS  NOT AVBL
FORT PULASKI     2000   68 75  280/ 22/ 27 1004.3F
SAPELO ISLAND    2000   72     290/ 18     1005.0S

$$

ANZ835-935-AMZ111-154-330-350-352-354-370-450-454-472-052200-
...C-MAN AND BUOY OBSERVATIONS...

STATION/POSITION TIME  TEMP    WIND        PRES    WAVE   SWELL
                       AIR SEA DIR/SP/G            HT/PER HT/PER/DIR
                 (UTC) (F)     (DEG/KT/KT) (MB)    (FT/S) (FT/S/D)
BUOY 41004       2050   69 74  270/ 19/ 25 1001.7R   5/ 6   2/10
BUOY 41008       NOT AVBL
FOLLY BEACH CMAN 2100   68     290/ 12/ 17 1003.1R
CAPERS NEARSHORE 2008   68 71  280/ 17/ 25 1001.3F
FRIPP NEARSHORE  2008   68 69  280/ 19/ 27 1002.8R


STATION/POSITION TIME  TEMP    WIND        PRES    WAVE   SWELL
                       AIR SEA DIR/SP/G            HT/PER HT/PER/DIR
                 (UTC) (F)     (DEG/KT/KT) (MB)    (FT/S) (FT/S/D)
5E ST. MARYS GA  2021      71                N/A     3/ 4
FRYING PAN BUOY  2000   69 72  260/ 19/ 23  999.4R
BUOY 41025       2050   58 77   20/ 19/ 25  998.3R   6/ 6   2/ 10/14
CAPE LOOKOUT NC  2000   61      70/ 14/ 15  998.6R
BUOY 41002       2050   73 74  220/ 19/ 23 1000.9F   8/ 8
BUOY 41010       2020   73 78  290/ 19/ 23 1006.1R
ST AUGUSTINE FL  2100   75 71  300/ 15/ 19 1005.9F


$$




USA.gov is the U.S. government's official web portal to all federal, state and local government web resources and services.